User: anonymous   Login
Location: Unspecified
(0.0000°N, 0.0000°E)
Time: 17:44:51
(UTC+00:00)
Language:

TET - Orbit

View from above orbital plane
View from above orbital plane
View from above satellite
View from above satellite

Ground track
Ground track

The orbit data is extracted from the following two-line orbital elements,

1 38710U 12039D   18344.05535389  .00002805  00000-0  54508-4 0  9993
2 38710  97.6085 330.3251 0003143  70.5230 289.6359 15.48562667357862
Epoch (UTC): 10 December 2018 01:19:42
Eccentricity: 0.0003143
inclination: 97.6085°
perigee height: 419 km
apogee height: 423 km
right ascension of ascending node: 330.3251°
argument of perigee: 70.5230°
revolutions per day: 15.48562667
mean anomaly at epoch: 289.6359°
orbit number at epoch: 35786

The dashed part of the orbit path shows where the satellite is in the earth's shadow,  

DLR